WC4PEM-6 Weather Reports


time (UTC)temp
F
wind
direction
speed
knots
gust
knots
rain 1hr
in
rain 24hr
in
rain mn
in
humidity
%
barometer
mb
20260504151008 77 11 5.2 12.2 0.00 0.04 0.03 54 1017.1
20260504150508 77 93 4.3 11.3 0.00 0.04 0.03 56 1017.1
20260504141008 75 346 4.3 12.2 0.01 0.05 0.03 58 1016.8
20260504140508 75 344 5.2 11.3 0.01 0.05 0.03 59 1016.9
20260504130508 71 342 2.6 7.0 0.00 0.04 0.02 70 1016.3
20260504130324 71 88 3.5 9.6 0.00 0.04 0.02 72 1016.4
20260504110509 64 16 1.7 4.3 0.00 0.04 0.02 84 1015.3
20260504110338 64 342 3.5 5.2 0.00 0.04 0.02 83 1015.3
20260504100509 64 30 3.5 7.0 0.00 0.04 0.02 83 1015.0
20260504081509 67 51 2.6 4.3 0.00 0.04 0.02 80 1014.8
20260504081009 67 330 2.6 4.3 0.00 0.04 0.02 80 1014.9
20260504080509 67 13 2.6 4.3 0.00 0.04 0.02 80 1015.0
20260504050509 69 9 2.6 4.3 0.00 0.03 0.01 76 1016.4
20260504050009 69 93 2.6 7.0 0.00 0.03 0.01 76 1016.5
20260504045838 69 21 1.7 5.2 0.00 0.03 0.01 76 1016.5
20260504045509 69 21 1.7 5.2 0.00 0.03 0.01 76 1016.5
20260504045009 69 309 1.7 3.5 0.00 0.03 0.01 76 1016.4
20260504044509 69 323 1.7 5.2 0.00 0.03 0.01 76 1016.6
20260504044009 69 55 1.7 5.2 0.00 0.03 0.01 76 1016.5
20260504043944 69 88 1.7 3.5 0.00 0.03 0.01 76 1016.7
20260504043509 69 88 1.7 3.5 0.00 0.03 0.01 76 1016.7
20260504043009 69 26 1.7 3.5 0.00 0.03 0.01 76 1016.6
20260504042509 69 70 1.7 4.3 0.00 0.03 0.01 76 1016.6
20260504042009 69 41 1.7 4.3 0.00 0.03 0.01 76 1016.7
20260504041509 69 51 1.7 3.5 0.00 0.03 0.01 76 1016.9
20260504041009 69 57 1.7 4.3 0.00 0.03 0.01 76 1016.9
20260504040948 69 76 1.7 2.6 0.00 0.03 0.01 76 1016.7
20260504040509 69 317 0.9 5.2 0.00 0.03 0.01 76 1016.7
20260504040009 69 76 1.7 2.6 0.00 0.03 0.01 76 1016.7
20260504035509 69 325 1.7 3.5 0.00 0.03 0.01 76 1016.6
20260504035009 69 88 1.7 5.2 0.00 0.03 0.01 75 1016.7
20260504034509 69 71 1.7 2.6 0.00 0.03 0.01 75 1016.7
20260504034009 69 325 1.7 6.1 0.00 0.04 0.01 75 1016.8
20260504033728 69 26 1.7 5.2 0.00 0.04 0.01 75 1016.7
20260504033509 69 83 1.7 5.2 0.00 0.04 0.01 75 1016.7
20260504033017 69 67 1.7 6.1 0.00 0.04 0.01 75 1016.7
20260504033009 69 26 1.7 5.2 0.00 0.04 0.01 75 1016.7
20260504032509 69 80 1.7 6.1 0.00 0.04 0.01 75 1016.7
20260504032009 69 67 1.7 6.1 0.00 0.04 0.01 75 1016.7
20260504031509 69 93 1.7 6.1 0.00 0.04 0.01 75 1016.7
20260504031140 69 88 1.7 6.1 0.00 0.04 0.01 75 1016.8
20260504031009 69 93 2.6 7.0 0.00 0.04 0.01 75 1016.7
20260504030509 69 88 1.7 6.1 0.00 0.04 0.01 75 1016.8
20260504030010 69 71 1.7 4.3 0.00 0.04 0.01 75 1017.0
20260504025509 69 79 1.7 7.0 0.00 0.04 0.01 75 1016.9
20260504025009 69 88 1.7 6.1 0.00 0.04 0.01 76 1016.7
20260504024509 69 80 1.7 6.1 0.00 0.04 0.01 75 1016.7
20260504024010 69 88 1.7 7.8 0.00 0.04 0.01 75 1016.6
20260504023509 69 282 2.6 5.2 0.00 0.04 0.01 75 1016.6
20260504023009 70 87 2.6 7.0 0.00 0.04 0.01 75 1016.6
20260504022509 69 51 2.6 7.8 0.00 0.04 0.01 75 1016.6
20260504022012 70 334 1.7 5.2 0.00 0.04 0.01 75 1016.6
20260504022010 69 325 2.6 7.8 0.00 0.04 0.01 75 1016.7
20260504021509 70 334 1.7 5.2 0.00 0.04 0.01 75 1016.6
20260504021010 70 79 1.7 5.2 0.00 0.04 0.01 75 1016.5
20260504020510 70 85 1.7 7.8 0.00 0.04 0.01 75 1016.4
20260504020009 70 88 1.7 5.2 0.00 0.04 0.01 75 1016.3
20260504015510 70 88 2.6 7.8 0.00 0.04 0.01 74 1016.3
20260504015010 70 92 1.7 7.0 0.00 0.04 0.01 74 1016.1
20260504014510 70 146 2.6 5.2 0.00 0.04 0.01 74 1016.3
20260504014010 70 90 2.6 7.8 0.00 0.04 0.01 74 1016.5
20260504013510 70 26 2.6 8.7 0.00 0.04 0.01 74 1016.4
20260504013010 70 85 2.6 10.4 0.00 0.04 0.01 74 1016.4
20260504012510 70 90 2.6 7.0 0.00 0.04 0.01 74 1016.3
20260504012010 70 51 2.6 6.1 0.01 0.04 0.01 73 1016.1
20260504011510 71 9 2.6 9.6 0.01 0.04 0.01 73 1016.1
20260504011010 71 9 2.6 5.2 0.01 0.04 0.01 73 1016.2
20260504010510 71 78 2.6 7.0 0.01 0.04 0.01 73 1016.1
20260504010038 71 63 1.7 5.2 0.01 0.04 0.01 73 1015.8
20260504010010 71 76 1.7 6.1 0.01 0.04 0.01 73 1016.0
20260504005510 71 63 1.7 5.2 0.01 0.04 0.01 73 1015.8
20260504005010 71 93 1.7 7.0 0.01 0.04 0.01 73 1015.7
20260504004510 71 90 1.7 5.2 0.01 0.04 0.01 72 1015.6
20260504004010 71 90 2.6 7.0 0.01 0.04 0.01 72 1015.4
20260504003510 71 93 2.6 7.0 0.01 0.04 0.01 72 1015.6
20260504003010 72 93 1.7 7.8 0.01 0.04 0.01 71 1015.5
20260504002510 72 51 2.6 6.1 0.01 0.04 0.01 71 1015.6
20260504002012 72 90 2.6 8.7 0.00 0.03 0.00 71 1015.3
20260504002010 72 93 2.6 9.6 0.00 0.03 0.00 71 1015.4
20260504001510 72 90 2.6 8.7 0.00 0.03 0.00 71 1015.3
20260504001010 72 78 3.5 8.7 0.00 0.03 0.03 71 1015.4
20260504000510 72 76 2.6 7.8 0.00 0.03 0.03 70 1015.3
20260504000010 72 92 2.6 6.1 0.00 0.03 0.03 70 1015.3
20260503235510 72 93 3.5 7.8 0.00 0.03 0.03 70 1015.2
20260503235018 73 108 3.5 10.4 0.00 0.03 0.03 69 1015.1
20260503235010 73 93 3.5 7.0 0.00 0.03 0.03 70 1015.1
20260503234510 73 108 3.5 10.4 0.00 0.03 0.03 69 1015.1
20260503234010 73 65 3.5 10.4 0.00 0.03 0.03 69 1015.1
20260503233510 73 29 3.5 10.4 0.00 0.03 0.03 69 1015.2
20260503233010 73 346 3.5 10.4 0.00 0.03 0.03 69 1015.2
20260503232510 73 84 3.5 7.8 0.00 0.03 0.03 69 1015.1
20260503232010 73 76 4.3 10.4 0.00 0.03 0.03 68 1015.1
20260503231510 74 45 5.2 10.4 0.00 0.03 0.03 69 1015.1
20260503231010 74 71 4.3 10.4 0.00 0.03 0.03 69 1015.0
20260503230510 74 90 3.5 9.6 0.00 0.03 0.03 69 1015.0
20260503230010 74 80 2.6 8.7 0.00 0.03 0.03 68 1014.9
20260503225510 74 84 3.5 6.1 0.00 0.03 0.03 68 1014.8
20260503225010 74 23 4.3 7.8 0.00 0.03 0.03 68 1014.9
20260503224510 74 137 4.3 11.3 0.00 0.03 0.03 68 1014.9
20260503224010 74 67 4.3 10.4 0.00 0.04 0.03 67 1015.0
20260503223510 75 80 3.5 8.7 0.00 0.04 0.03 68 1015.1
20260503223140 75 93 3.5 9.6 0.00 0.04 0.03 66 1015.1
20260503223010 75 212 4.3 9.6 0.00 0.04 0.03 67 1015.1
20260503222510 75 93 3.5 9.6 0.00 0.04 0.03 66 1015.1
20260503222010 75 78 2.6 6.1 0.00 0.04 0.03 66 1014.9
20260503221510 75 93 2.6 7.8 0.00 0.04 0.03 65 1014.9
20260503221010 75 86 2.6 6.1 0.00 0.04 0.03 66 1014.9
20260503220510 75 76 3.5 7.0 0.00 0.04 0.03 66 1014.9
20260503220440 75 88 3.5 7.0 0.00 0.04 0.03 65 1014.8
20260503220010 75 88 3.5 7.0 0.00 0.04 0.03 65 1014.8
20260503215510 75 28 3.5 7.8 0.00 0.04 0.03 66 1014.9
20260503215010 76 79 2.6 10.4 0.00 0.04 0.03 66 1014.9
20260503214510 76 93 2.6 8.7 0.00 0.04 0.03 66 1014.8
20260503214010 76 59 3.5 7.8 0.00 0.04 0.03 65 1014.6
20260503213510 76 72 3.5 7.8 0.00 0.04 0.03 64 1014.6
20260503213236 76 80 3.5 7.8 0.00 0.04 0.03 64 1014.6
20260503213010 76 80 3.5 7.8 0.00 0.04 0.03 64 1014.6
20260503212510 76 67 3.5 7.8 0.00 0.04 0.03 64 1014.7
20260503212010 76 90 2.6 7.0 0.00 0.04 0.03 64 1014.7
20260503211510 76 59 2.6 7.0 0.00 0.04 0.03 63 1014.6
20260503211138 76 93 3.5 7.8 0.00 0.04 0.03 63 1014.7
20260503211010 76 93 3.5 7.8 0.00 0.04 0.03 63 1014.7
20260503210510 76 34 4.3 8.7 0.00 0.04 0.03 64 1014.7
20260503210104 76 93 3.5 9.6 0.00 0.04 0.03 64 1014.7
20260503210010 76 93 3.5 9.6 0.00 0.04 0.03 64 1014.7
20260503205510 76 88 3.5 7.0 0.00 0.04 0.03 65 1014.8
20260503205010 76 93 3.5 7.8 0.00 0.04 0.03 63 1014.7
20260503204510 77 90 3.5 9.6 0.01 0.04 0.03 62 1014.8
20260503204010 77 44 3.5 7.8 0.01 0.05 0.03 62 1014.9
20260503203510 77 84 3.5 7.8 0.01 0.05 0.03 62 1015.0
20260503203010 76 337 3.5 8.7 0.01 0.05 0.03 63 1014.9
20260503202510 76 77 4.3 8.7 0.01 0.05 0.03 63 1015.0
20260503202010 77 92 3.5 9.6 0.01 0.05 0.03 63 1015.1
20260503201510 76 51 3.5 8.7 0.01 0.05 0.03 65 1015.2
20260503201010 76 92 3.5 7.8 0.01 0.05 0.03 63 1015.2
20260503200510 77 88 4.3 8.7 0.01 0.05 0.03 62 1015.3
20260503200010 77 74 3.5 8.7 0.01 0.05 0.03 61 1015.4
20260503195510 77 102 2.6 7.8 0.01 0.05 0.03 62 1015.4
20260503195013 76 87 4.3 9.6 0.00 0.04 0.02 64 1015.6
20260503195010 77 44 3.5 4.3 0.01 0.05 0.03 63 1015.4
20260503194510 76 87 4.3 9.6 0.00 0.04 0.02 64 1015.6
20260503194010 76 92 3.5 9.6 0.00 0.04 0.02 63 1015.7
20260503193510 76 44 2.6 7.0 0.00 0.04 0.02 65 1015.7
20260503193010 76 57 3.5 7.8 0.00 0.04 0.02 65 1015.8
20260503192510 76 84 3.5 10.4 0.00 0.04 0.02 63 1016.0
20260503192010 76 338 2.6 7.8 0.00 0.04 0.02 64 1016.0
20260503191811 76 93 1.7 7.8 0.00 0.04 0.02 65 1016.0
20260503191510 76 93 1.7 7.8 0.00 0.04 0.02 65 1016.0
20260503191010 76 32 2.6 5.2 0.00 0.04 0.02 66 1016.1
20260503190510 76 90 2.6 9.6 0.00 0.04 0.02 66 1016.2
20260503190010 76 93 2.6 7.0 0.00 0.04 0.02 66 1016.1
20260503185510 76 86 3.5 8.7 0.00 0.04 0.02 67 1016.3
20260503185010 76 15 3.5 8.7 0.00 0.04 0.02 67 1016.3
20260503184510 76 82 3.5 8.7 0.00 0.04 0.02 67 1016.3
20260503184010 76 19 3.5 8.7 0.00 0.04 0.02 67 1016.5
20260503183956 76 90 4.3 7.8 0.00 0.04 0.02 66 1016.7
20260503183510 76 90 4.3 7.8 0.00 0.04 0.02 66 1016.7
20260503183010 76 90 3.5 8.7 0.00 0.04 0.02 67 1016.7
20260503182510 76 74 3.5 7.0 0.00 0.04 0.02 67 1016.9
20260503182142 75 93 3.5 11.3 0.00 0.04 0.02 67 1016.9
20260503182010 75 93 3.5 11.3 0.00 0.04 0.02 67 1016.9
20260503181510 75 333 3.5 7.8 0.00 0.04 0.02 69 1016.9
20260503181010 74 195 4.3 10.4 0.00 0.04 0.02 67 1017.0
20260503180510 74 93 4.3 11.3 0.00 0.04 0.02 68 1017.1
20260503180010 74 92 4.3 9.6 0.00 0.04 0.02 69 1017.1
20260503175510 75 84 4.3 10.4 0.00 0.04 0.02 69 1017.3
20260503175010 74 90 3.5 7.0 0.00 0.04 0.02 69 1017.2
20260503174510 74 93 4.3 7.8 0.00 0.04 0.02 68 1017.3
20260503174010 74 48 3.5 11.3 0.00 0.04 0.02 69 1017.3
20260503173510 74 81 3.5 8.7 0.00 0.04 0.02 70 1017.2
20260503173010 74 36 3.5 8.7 0.00 0.04 0.02 69 1017.3
20260503172510 74 90 3.5 10.4 0.00 0.04 0.02 71 1017.2
20260503172011 73 80 4.3 10.4 0.00 0.04 0.02 71 1017.2
20260503171511 73 34 5.2 10.4 0.00 0.04 0.02 70 1017.4
20260503171011 73 90 5.2 11.3 0.00 0.04 0.02 69 1017.6
20260503170511 74 88 4.3 12.2 0.00 0.04 0.02 70 1017.5